This demonstration page uses our WeatherBlox Daily Observations layout. Learn more.

Left ArrowRight Arrow

38.80484, -77.04692

Hourly Observations for July 5, 2022

Temp ( °F °C ) Dew Point ( °F °C ) Humidity (%) Winds ( mph kmh ) Pressure ( in mb ) Visibility ( mi km ) Precip ( " mm )
12:52 am 00:52 Mostly Cloudy 75 23.9 62 16.7 64 64 SSE 5 7 30.14 1021 10 16 0.00 0.00
1:52 am 01:52 Mostly Cloudy 74 23.3 65 18.3 74 74 S 9 15 30.12 1020 10 16 0.00 0.00
2:52 am 02:52 Mostly Cloudy 73 22.8 67 19.4 81 81 S 10 17 30.11 1020 10 16 0.00 0.00
3:52 am 03:52 Mostly Cloudy 74 23.3 66 18.9 76 76 SSW 7 11 30.11 1020 10 16 0.00 0.00
4:52 am 04:52 Cloudy 74 23.3 66 18.9 76 76 SSW 7 11 30.11 1020 10 16 0.00 0.00
5:52 am 05:52 Cloudy 74 23.3 66 18.9 76 76 S 9 15 30.11 1020 10 16 0.00 0.00
6:52 am 06:52 Mostly Cloudy 74 23.3 65 18.3 74 74 S 12 19 30.10 1019 10 16 0.00 0.00
7:52 am 07:52 Mostly Cloudy 76 24.4 66 18.9 72 72 S 13 20 30.09 1019 10 16 0.00 0.00
8:52 am 08:52 Mostly Cloudy 77 25 66 18.9 69 69 SSW 10 17 30.08 1019 10 16 0.00 0.00
9:52 am 09:52 Cloudy 79 26.1 68 20 69 69 S 14 22 30.06 1018 10 16 0.00 0.00
10:52 am 10:52 Mostly Cloudy 82 27.8 70 21.1 67 67 S 13 20 30.03 1017 10 16 0.00 0.00
11:52 am 11:52 Mostly Cloudy 83 28.3 72 22.2 70 70 S 16 26 30.02 1017 10 16 0.00 0.00
12:29 pm 12:29 Mostly Cloudy 85 29.4 71 21.7 63 63 SSW 15 24 30.00 1016 10 16 0.00 0.00
12:52 pm 12:52 Mostly Cloudy 83 28.3 72 22.2 70 70 S 14 22 29.99 1016 10 16 0.00 0.00
1:22 pm 13:22 Mostly Cloudy with Thunderstorms 81 27.2 73 22.8 77 77 S 13 20 29.98 1015 10 16 0.00 0.00
1:43 pm 13:43 Mostly Cloudy with Strong Thunderstorms 79 26.1 73 22.8 82 82 SSW 12 19 29.97 1015 2 3 0.07 1.78
1:52 pm 13:52 Mostly Cloudy with Thunderstorms 79 26.1 74 23.3 85 85 S 7 11 29.96 1015 4 6 0.09 2.29
2:05 pm 14:05 Cloudy with Light Rain 79 26.1 74 23.3 85 85 S 10 17 29.96 1014 8 13 0.00 0.00
2:52 pm 14:52 Mostly Cloudy 79 26.1 73 22.8 82 82 S 16 26 29.94 1014 10 16 0.00 0.00
3:52 pm 15:52 Mostly Cloudy 81 27.2 72 22.2 74 74 S 14 22 29.92 1013 10 16 0.00 0.00
4:16 pm 16:16 Mostly Cloudy 81 27.2 73 22.8 77 77 S 14 22 29.91 1013 10 16 0.00 0.00
4:44 pm 16:44 Mostly Cloudy 84 28.9 75 23.9 74 74 S 15 24 29.89 1012 10 16 0.00 0.00
4:52 pm 16:52 Mostly Cloudy 84 28.9 75 23.9 74 74 S 15 24 29.88 1012 10 16 0.00 0.00
5:02 pm 17:02 Partly Cloudy with Nearby Thunderstorms 84 28.9 75 23.9 74 74 S 18 30 29.88 1012 10 16 0.00 0.00
5:19 pm 17:19 Mostly Cloudy 84 28.9 75 23.9 74 74 SSW 16 26 29.88 1012 10 16 0.00 0.00
5:52 pm 17:52 Mostly Cloudy 85 29.4 76 24.4 75 75 S 13 20 29.87 1012 10 16 0.00 0.00
6:52 pm 18:52 Mostly Cloudy 86 30 76 24.4 72 72 SW 13 20 29.87 1012 10 16 0.00 0.00
7:52 pm 19:52 Mostly Cloudy 86 30 75 23.9 70 70 SSW 10 17 29.87 1012 10 16 0.00 0.00
8:52 pm 20:52 Mostly Cloudy 83 28.3 75 23.9 77 77 SW 8 13 29.86 1011 10 16 0.00 0.00
9:52 pm 21:52 Mostly Cloudy 84 28.9 74 23.3 72 72 SW 7 11 29.87 1012 10 16 0.00 0.00
10:52 pm 22:52 Mostly Cloudy 83 28.3 72 22.2 70 70 SW 8 13 29.86 1011 10 16 0.00 0.00
11:52 pm 23:52 Mostly Cloudy 81 27.2 71 21.7 72 72 SW 6 9 29.86 1011 10 16 0.00 0.00

Powered by AerisWeather